| time (UTC) | temp F | wind direction | speed knots | gust knots | rain 1hr in | rain 24hr in | rain mn in | humidity % | barometer mb |
| 20260504081524 | 40 | 287 | 0.0 | 0.9 | 0.00 | 0.00 | 0.00 | 78 | 1012.6 |
| 20260504044557 | 46 | 287 | 0.0 | 0.0 | 0.00 | 0.00 | 0.00 | 61 | 1012.6 |
| 20260504043059 | 47 | 287 | 0.0 | 0.0 | 0.00 | 0.00 | 0.00 | 60 | 1012.5 |
| 20260504041550 | 47 | 287 | 0.0 | 0.9 | 0.00 | 0.00 | 0.00 | 59 | 1012.3 |
| 20260504040111 | 48 | 287 | 0.9 | 1.7 | 0.00 | 0.00 | 0.00 | 59 | 1012.3 |
| 20260504034548 | 48 | 287 | 0.0 | 0.0 | 0.00 | 0.00 | 0.00 | 58 | 1012.2 |
| 20260504033049 | 49 | 287 | 0.0 | 0.0 | 0.00 | 0.00 | 0.00 | 57 | 1012.1 |
| 20260504031555 | 49 | 287 | 0.0 | 0.0 | 0.00 | 0.00 | 0.00 | 55 | 1012.0 |
| 20260504030046 | 50 | 287 | 0.0 | 0.0 | 0.00 | 0.00 | 0.00 | 54 | 1012.0 |
| 20260504024545 | 50 | 287 | 0.0 | 0.0 | 0.00 | 0.00 | 0.00 | 53 | 1012.0 |
| 20260504023045 | 51 | 287 | 0.0 | 1.7 | 0.00 | 0.00 | 0.00 | 52 | 1012.0 |
| 20260504021543 | 51 | 287 | 0.0 | 1.7 | 0.00 | 0.00 | 0.00 | 51 | 1012.0 |
| 20260504020053 | 52 | 287 | 0.9 | 2.6 | 0.00 | 0.00 | 0.00 | 49 | 1012.0 |
| 20260504014544 | 53 | 287 | 0.9 | 2.6 | 0.00 | 0.00 | 0.00 | 48 | 1011.9 |
| 20260504013044 | 53 | 287 | 0.9 | 2.6 | 0.00 | 0.00 | 0.00 | 47 | 1011.7 |
| 20260504011542 | 53 | 287 | 1.7 | 2.6 | 0.00 | 0.00 | 0.00 | 45 | 1011.6 |
| 20260504010042 | 54 | 287 | 1.7 | 3.5 | 0.00 | 0.00 | 0.00 | 45 | 1011.4 |
| 20260504004540 | 55 | 287 | 2.6 | 3.5 | 0.00 | 0.00 | 0.00 | 44 | 1011.3 |
| 20260504003040 | 56 | 287 | 1.7 | 3.5 | 0.00 | 0.00 | 0.00 | 42 | 1011.1 |
| 20260504001548 | 56 | 287 | 1.7 | 3.5 | 0.00 | 0.00 | 0.00 | 40 | 1010.9 |
| 20260504000038 | 57 | 287 | 2.6 | 3.5 | 0.00 | 0.00 | 0.00 | 39 | 1010.8 |
| 20260503234559 | 58 | 287 | 2.6 | 4.3 | 0.00 | 0.00 | 0.00 | 38 | 1010.7 |
| 20260503233044 | 58 | 287 | 2.6 | 6.1 | 0.00 | 0.00 | 0.00 | 38 | 1010.5 |
| 20260503231536 | 59 | 288 | 3.5 | 7.8 | 0.00 | 0.00 | 0.00 | 38 | 1010.4 |
| 20260503230035 | 59 | 286 | 2.6 | 7.0 | 0.00 | 0.00 | 0.00 | 38 | 1010.4 |
| 20260503224535 | 60 | 282 | 2.6 | 6.1 | 0.00 | 0.00 | 0.00 | 37 | 1010.4 |
| 20260503223035 | 60 | 38 | 0.0 | 8.7 | 0.00 | 0.00 | 0.00 | 37 | 1010.3 |
| 20260503221536 | 60 | 297 | 2.6 | 7.0 | 0.00 | 0.00 | 0.00 | 35 | 1010.3 |
| 20260503220033 | 60 | 171 | 0.9 | 10.4 | 0.00 | 0.00 | 0.00 | 35 | 1010.4 |
| 20260503214532 | 60 | 286 | 3.5 | 7.8 | 0.00 | 0.00 | 0.00 | 35 | 1010.4 |
| 20260503213033 | 60 | 286 | 2.6 | 6.1 | 0.00 | 0.00 | 0.00 | 35 | 1010.4 |
| 20260503211530 | 60 | 297 | 0.9 | 7.8 | 0.00 | 0.00 | 0.00 | 38 | 1010.3 |
| 20260503210028 | 59 | 287 | 1.7 | 8.7 | 0.00 | 0.00 | 0.00 | 37 | 1010.4 |
| 20260503204528 | 60 | 299 | 2.6 | 8.7 | 0.00 | 0.00 | 0.00 | 36 | 1010.3 |
| 20260503203027 | 59 | 285 | 2.6 | 8.7 | 0.00 | 0.00 | 0.00 | 37 | 1010.4 |
| 20260503201527 | 58 | 282 | 5.2 | 9.6 | 0.00 | 0.00 | 0.00 | 37 | 1010.6 |
| 20260503200028 | 59 | 280 | 2.6 | 10.4 | 0.00 | 0.00 | 0.00 | 37 | 1010.7 |
| 20260503194527 | 59 | 282 | 3.5 | 10.4 | 0.00 | 0.00 | 0.00 | 37 | 1010.8 |
| 20260503193026 | 58 | 302 | 2.6 | 7.8 | 0.00 | 0.00 | 0.00 | 36 | 1011.1 |
| 20260503191530 | 58 | 234 | 4.3 | 11.3 | 0.00 | 0.00 | 0.00 | 37 | 1011.1 |
| 20260503190024 | 59 | 291 | 4.3 | 9.6 | 0.00 | 0.00 | 0.00 | 36 | 1011.1 |
| 20260503184524 | 60 | 338 | 3.5 | 9.6 | 0.00 | 0.00 | 0.00 | 35 | 1011.2 |
| 20260503183022 | 59 | 292 | 1.7 | 9.6 | 0.00 | 0.00 | 0.00 | 39 | 1011.4 |
| 20260503181520 | 59 | 285 | 0.9 | 9.6 | 0.00 | 0.00 | 0.00 | 38 | 1011.5 |
| 20260503180019 | 59 | 311 | 1.7 | 8.7 | 0.00 | 0.00 | 0.00 | 36 | 1011.6 |
| 20260503174518 | 57 | 221 | 0.9 | 13.0 | 0.00 | 0.00 | 0.00 | 39 | 1011.7 |
| 20260503173015 | 57 | 277 | 3.5 | 10.4 | 0.00 | 0.00 | 0.00 | 41 | 1011.7 |
| 20260503171514 | 56 | 296 | 1.7 | 13.0 | 0.00 | 0.00 | 0.00 | 36 | 1011.8 |